Location: *
(51.5000°N, 0.1100°W)
Time: 17:33:48
(UTC+00:00)

Cosmos 2322 Rocket - Pass Details

Date: 25 May 2024
Orbit: 832 x 850 km, 71.0° (Epoch: 16 June)

Event Time Altitude Azimuth Distance (km) Brightness Sun altitude
Rises 02:03:19 0° 327° (NNW) 3,402 5.7 -12.4°
Reaches altitude 10° 02:05:49 10° 323° (NW) 2,467 4.9 -12.2°
Maximum altitude 02:11:17 53° 248° (WSW) 1,035 2.4 -11.8°
Drops below altitude 10° 02:16:45 10° 173° (S) 2,462 4.2 -11.3°
Enters shadow 02:17:55 - 171° (S) 2,898 4.6 -11.2°
